Zurück zum Katalog

FENGYUN 1C DEB

AktivPO
NORAD 37069·DEBRIS·🇨🇳 China

Gestartet May 10, 1999 von Taiyuan Satellite Launch Center

Loading…

Nächste Überflüge (nächste 24 Stunden)

TLE

AktuellSource: Space-Track

Epoche: Sep 11, 2026, 09:49 UTC

1 37069U 99025EFD 26254.40911403  .00000978  00000-0  11153-2 0  9998
2 37069  95.8439 115.0411 0419142 241.4157 114.4207 13.39066543913566

Verfolge FENGYUN 1C DEB in Echtzeit mit AllMySat

Download on the App Store